Simultaneous Nadir Overpasses (SNOs) Predictions

Prediction of SNOs between METOP-B and TERRA Satellite Orbit:

Table of predicted SNOs for the next 14.0 days since TLE Epoch: 11/23/2019
Index Date (METOP-B) Time (METOP-B) Lat,Lon (METOP-B) SZA (METOP-B ) Date (TERRA) Time (TERRA) Lat,Lon (TERRA) SZA (TERRA ) Distance(km) Time Diff (sec)
1 11/23/2019 21:41:44 81.28, -98.94 104.64 11/23/2019 21:42:47 81.28, -98.87 104.68 1.18 63
2 11/23/2019 22:32:24 -81.28, 68.66 75.33 11/23/2019 22:32:14 -81.27, 68.72 75.33 1.21 10
3 11/26/2019 17:16:08 81.27, -32.70 105.15 11/26/2019 17:17:03 81.27, -32.55 105.19 2.52 55
4 11/26/2019 18:06:47 -81.28, 135.29 74.77 11/26/2019 18:06:29 -81.29, 135.44 74.76 2.59 18
5 11/29/2019 12:50:32 81.28, 33.94 105.65 11/29/2019 12:51:20 81.28, 34.08 105.69 2.41 48
6 11/29/2019 13:41:12 -81.28,-158.46 74.32 11/29/2019 13:40:47 -81.28,-158.29 74.31 2.85 25
7 12/02/2019 08:24:56 81.28, 100.57 106.09 12/02/2019 08:25:38 81.29, 100.63 106.12 1.33 42
8 12/02/2019 09:15:36 -81.28, -91.82 73.87 12/02/2019 09:15:05 -81.29, -91.71 73.87 1.81 31
9 12/05/2019 03:59:20 81.28, 166.82 106.43 12/05/2019 03:59:57 81.27, 166.73 106.44 1.69 37




NCC Satellite Simultaneous Nadir Overpasses (SNOs) Prediction Service
